QPF
0.02 0.01 0.01 0.01 0.01 0.01 0.01 0.01 0.02 0.02 0.02 0.03 0.03 0.03 0.03 0.03 0.03 0.03 0.02 0.02 0.02 0.03 0.03 0.04 0.03 0.02 0.02 0.02 0.02 0.02 0.02 0.03 0.03 0.03 0.02 0.01 0.01 0.01 0.01 0.03 0.03 0.04 0.05 0.05
0.01 0.01 0.01 0.01 0.01 0.01 0.00 0.00 0.01 0.01 0.02 0.02 0.02 0.01 0.02 0.02 0.02 0.02 0.03 0.03 0.03 0.03 0.03 0.02 0.03 0.03 0.03 0.02 0.03 0.02 0.02 0.03 0.02 0.01 0.01 0.01 0.01 0.01 0.01 0.03 0.05 0.06 0.06 0.06
0.02 0.01 0.02 0.02 0.01 0.01 0.01 0.01 0.01 0.01 0.02 0.02 0.01 0.01 0.01 0.01 0.01 0.02 0.02 0.03 0.03 0.04 0.05 0.04 0.04 0.04 0.04 0.03 0.02 0.01 0.01 0.01 0.01 0.01 0.01 0.01 0.00 0.01 0.02 0.03 0.06 0.07 0.07 0.07
0.02 0.02 0.04 0.04 0.01 0.01 0.01 0.01 0.01 0.01 0.01 0.01 0.01 0.01 0.01 0.02 0.02 0.03 0.02 0.02 0.03 0.05 0.05 0.04 0.03 0.03 0.03 0.03 0.03 0.01 0.01 0.01 0.01 0.01 0.01 0.00 0.00 0.01 0.03 0.03 0.04 0.05 0.05 0.05
0.03 0.03 0.03 0.03 0.02 0.01 0.01 0.01 0.01 0.01 0.01 0.02 0.01 0.02 0.02 0.03 0.02 0.02 0.01 0.02 0.03 0.04 0.03 0.02 0.02 0.02 0.02 0.03 0.03 0.03 0.03 0.02 0.02 0.01 0.01 0.01 0.01 0.01 0.02 0.04 0.03 0.03 0.05 0.05
0.03 0.03 0.04 0.04 0.01 0.01 0.02 0.04 0.03 0.02 0.02 0.02 0.02 0.03 0.03 0.02 0.01 0.01 0.01 0.01 0.02 0.02 0.02 0.02 0.02 0.02 0.02 0.02 0.03 0.02 0.03 0.03 0.02 0.01 0.01 0.01 0.01 0.02 0.03 0.03 0.03 0.04 0.05 0.04
0.02 0.04 0.04 0.03 0.02 0.02 0.05 0.05 0.04 0.03 0.02 0.01 0.01 0.01 0.01 0.01 0.00 0.00 0.00 0.00 0.01 0.02 0.02 0.02 0.02 0.02 0.02 0.02 0.02 0.01 0.02 0.03 0.04 0.03 0.02 0.03 0.03 0.04 0.05 0.04 0.04 0.03 0.02 0.03
0.03 0.04 0.04 0.02 0.02 0.04 0.05 0.03 0.03 0.02 0.01 0.01 0.01 0.01 0.01 0.00 0.01 0.01 0.01 0.01 0.02 0.02 0.02 0.02 0.01 0.02 0.01 0.01 0.01 0.01 0.01 0.03 0.04 0.05 0.04 0.03 0.03 0.03 0.03 0.02 0.02 0.01 0.01 0.02
0.03 0.03 0.03 0.02 0.03 0.03 0.03 0.03 0.03 0.04 0.02 0.01 0.01 0.02 0.02 0.02 0.02 0.02 0.01 0.01 0.02 0.01 0.02 0.02 0.02 0.01 0.01 0.01 0.01 0.01 0.01 0.04 0.05 0.05 0.04 0.03 0.02 0.01 0.01 0.01 0.01 0.01 0.01 0.02
0.03 0.02 0.02 0.03 0.02 0.01 0.01 0.02 0.02 0.03 0.03 0.03 0.03 0.03 0.02 0.03 0.02 0.02 0.02 0.02 0.02 0.02 0.02 0.02 0.02 0.01 0.01 0.02 0.02 0.02 0.02 0.04 0.05 0.04 0.03 0.03 0.01 0.01 0.00 0.01 0.01 0.01 0.01 0.02
0.04 0.03 0.03 0.02 0.01 0.01 0.01 0.01 0.01 0.02 0.02 0.02 0.02 0.01 0.01 0.02 0.02 0.02 0.02 0.03 0.02 0.03 0.03 0.04 0.03 0.02 0.02 0.03 0.03 0.03 0.02 0.03 0.03 0.02 0.01 0.01 0.00 0.00 0.00 0.00 0.01 0.02 0.02 0.02
0.01 0.02 0.02 0.01 0.01 0.01 0.01 0.02 0.02 0.01 0.01 0.01 0.01 0.01 0.01 0.01 0.01 0.01 0.02 0.02 0.02 0.02 0.03 0.04 0.04 0.03 0.05 0.04 0.04 0.03 0.02 0.01 0.01 0.01 0.01 0.00 0.00 0.01 0.00 0.00 0.01 0.01 0.01 0.02
0.00 0.01 0.01 0.01 0.01 0.01 0.01 0.01 0.01 0.01 0.01 0.01 0.01 0.01 0.01 0.01 0.01 0.01 0.01 0.01 0.01 0.02 0.03 0.02 0.02 0.03 0.04 0.05 0.04 0.03 0.01 0.01 0.02 0.02 0.01 0.01 0.00 0.00 0.00 0.00 0.01 0.01 0.01 0.02
0.00 0.01 0.01 0.00 0.00 0.01 0.01 0.01 0.01 0.02 0.01 0.01 0.00 0.00 0.00 0.00 0.01 0.01 0.01 0.01 0.02 0.02 0.02 0.02 0.03 0.04 0.05 0.05 0.03 0.02 0.02 0.03 0.02 0.02 0.01 0.01 0.01 0.01 0.02 0.01 0.01 0.02 0.03 0.02
0.00 0.01 0.01 0.00 0.00 0.00 0.00 0.01 0.01 0.02 0.03 0.02 0.01 0.00 0.00 0.01 0.01 0.01 0.01 0.01 0.02 0.01 0.02 0.03 0.03 0.04 0.04 0.04 0.03 0.02 0.02 0.02 0.02 0.01 0.01 0.01 0.01 0.01 0.03 0.03 0.03 0.03 0.03 0.02
0.01 0.00 0.00 0.00 0.00 0.00 0.01 0.01 0.01 0.01 0.01 0.01 0.01 0.00 0.00 0.00 0.01 0.01 0.01 0.01 0.01 0.01 0.03 0.04 0.04 0.04 0.04 0.03 0.02 0.02 0.02 0.02 0.02 0.01 0.01 0.01 0.01 0.02 0.05 0.04 0.03 0.03 0.04 0.03
0.01 0.01 0.00 0.00 0.00 0.00 0.01 0.01 0.01 0.01 0.01 0.01 0.01 0.00 0.00 0.00 0.01 0.01 0.01 0.01 0.01 0.02 0.03 0.04 0.04 0.03 0.03 0.02 0.02 0.02 0.02 0.03 0.02 0.01 0.01 0.01 0.02 0.04 0.06 0.05 0.03 0.03 0.03 0.04
0.00 0.00 0.00 0.00 0.00 0.00 0.01 0.01 0.02 0.02 0.02 0.02 0.02 0.01 0.01 0.01 0.01 0.01 0.01 0.01 0.02 0.03 0.03 0.03 0.03 0.02 0.02 0.01 0.02 0.02 0.03 0.04 0.02 0.01 0.01 0.01 0.02 0.04 0.05 0.04 0.03 0.02 0.02 0.02
0.00 0.00 0.00 0.00 0.00 0.00 0.00 0.01 0.01 0.02 0.03 0.03 0.02 0.02 0.02 0.02 0.01 0.01 0.01 0.02 0.03 0.03 0.03 0.03 0.02 0.01 0.01 0.01 0.01 0.01 0.02 0.03 0.01 0.01 0.01 0.01 0.03 0.04 0.04 0.04 0.03 0.02 0.02 0.02
0.01 0.01 0.01 0.01 0.01 0.00 0.00 0.00 0.01 0.01 0.02 0.03 0.02 0.03 0.03 0.03 0.01 0.01 0.01 0.01 0.02 0.02 0.02 0.02 0.02 0.01 0.01 0.01 0.02 0.02 0.02 0.02 0.01 0.01 0.01 0.01 0.02 0.02 0.02 0.02 0.02 0.02 0.02 0.02
0.02 0.02 0.02 0.01 0.01 0.00 0.01 0.01 0.01 0.01 0.01 0.02 0.03 0.02 0.01 0.01 0.01 0.01 0.01 0.01 0.01 0.01 0.02 0.02 0.01 0.01 0.01 0.01 0.01 0.01 0.02 0.02 0.01 0.01 0.01 0.01 0.01 0.01 0.01 0.01 0.01 0.01 0.01 0.01
0.02 0.02 0.02 0.02 0.01 0.01 0.01 0.01 0.01 0.02 0.01 0.01 0.01 0.02 0.02 0.01 0.01 0.01 0.01 0.01 0.01 0.01 0.02 0.02 0.01 0.01 0.01 0.01 0.02 0.01 0.01 0.02 0.01 0.01 0.02 0.02 0.01 0.01 0.01 0.01 0.00 0.01 0.01 0.01
0.02 0.02 0.02 0.02 0.02 0.01 0.01 0.01 0.01 0.02 0.02 0.01 0.01 0.02 0.02 0.01 0.01 0.01 0.01 0.01 0.01 0.02 0.02 0.01 0.01 0.01 0.02 0.01 0.01 0.01 0.01 0.02 0.01 0.01 0.02 0.02 0.01 0.01 0.01 0.00 0.00 0.01 0.01 0.01
0.01 0.01 0.01 0.01 0.01 0.02 0.02 0.01 0.01 0.01 0.02 0.02 0.01 0.02 0.02 0.01 0.00 0.01 0.02 0.02 0.02 0.02 0.03 0.03 0.02 0.01 0.01 0.01 0.01 0.01 0.01 0.01 0.01 0.01 0.01 0.02 0.01 0.01 0.00 0.01 0.01 0.01 0.01 0.01
0.01 0.01 0.01 0.01 0.01 0.03 0.04 0.02 0.02 0.02 0.02 0.02 0.02 0.02 0.02 0.01 0.00 0.00 0.01 0.01 0.02 0.03 0.04 0.04 0.02 0.01 0.01 0.01 0.01 0.02 0.01 0.01 0.01 0.01 0.00 0.00 0.00 0.00 0.00 0.01 0.01 0.02 0.02 0.02
0.01 0.01 0.01 0.01 0.01 0.02 0.04 0.03 0.03 0.03 0.03 0.03 0.04 0.03 0.02 0.01 0.01 0.01 0.01 0.01 0.02 0.02 0.02 0.02 0.01 0.01 0.01 0.01 0.02 0.02 0.01 0.01 0.01 0.00 0.01 0.01 0.00 0.00 0.01 0.01 0.01 0.01 0.02 0.02
0.01 0.01 0.00 0.01 0.01 0.01 0.03 0.04 0.03 0.03 0.03 0.05 0.05 0.03 0.02 0.01 0.01 0.01 0.01 0.02 0.02 0.03 0.03 0.02 0.01 0.01 0.01 0.02 0.02 0.02 0.01 0.01 0.01 0.01 0.01 0.01 0.00 0.01 0.01 0.01 0.01 0.01 0.01 0.01
MSLP
1013.26 1013.46 1013.75 1014.14 1014.57 1014.98 1015.31 1015.47 1015.44 1015.18 1014.74 1014.15 1013.48 1012.81 1012.21 1011.72 1011.37 1011.16 1011.07 1011.06 1011.11 1011.17 1011.22 1011.27 1011.30 1011.34 1011.37 1011.42 1011.47 1011.52 1011.58 1011.63 1011.68 1011.73 1011.82 1011.96 1012.16 1012.44 1012.79 1013.19 1013.61 1014.00 1014.32 1014.52
1013.46 1013.62 1013.82 1014.06 1014.31 1014.55 1014.72 1014.80 1014.75 1014.58 1014.31 1013.96 1013.59 1013.23 1012.93 1012.69 1012.53 1012.43 1012.37 1012.33 1012.28 1012.22 1012.14 1012.06 1011.97 1011.90 1011.86 1011.86 1011.87 1011.90 1011.95 1011.99 1012.04 1012.10 1012.20 1012.34 1012.56 1012.85 1013.22 1013.64 1014.07 1014.48 1014.81 1015.03
1013.63 1013.75 1013.86 1013.98 1014.09 1014.17 1014.22 1014.21 1014.15 1014.05 1013.92 1013.77 1013.65 1013.56 1013.50 1013.47 1013.46 1013.44 1013.40 1013.31 1013.18 1013.01 1012.81 1012.60 1012.42 1012.27 1012.18 1012.14 1012.14 1012.17 1012.22 1012.29 1012.36 1012.44 1012.55 1012.71 1012.93 1013.23 1013.60 1014.01 1014.44 1014.84 1015.16 1015.38
1013.74 1013.82 1013.88 1013.90 1013.88 1013.85 1013.79 1013.71 1013.64 1013.58 1013.54 1013.56 1013.61 1013.71 1013.84 1013.97 1014.07 1014.12 1014.08 1013.97 1013.78 1013.52 1013.23 1012.94 1012.69 1012.50 1012.38 1012.34 1012.36 1012.42 1012.50 1012.60 1012.70 1012.82 1012.95 1013.12 1013.35 1013.64 1013.98 1014.36 1014.76 1015.13 1015.43 1015.62
1013.75 1013.80 1013.80 1013.74 1013.65 1013.53 1013.39 1013.26 1013.17 1013.12 1013.15 1013.26 1013.44 1013.67 1013.92 1014.16 1014.34 1014.44 1014.42 1014.30 1014.08 1013.78 1013.46 1013.14 1012.87 1012.67 1012.56 1012.54 1012.59 1012.70 1012.83 1012.98 1013.13 1013.28 1013.44 1013.62 1013.84 1014.11 1014.42 1014.76 1015.10 1015.41 1015.65 1015.79
1013.64 1013.65 1013.60 1013.50 1013.35 1013.17 1012.98 1012.81 1012.70 1012.66 1012.72 1012.87 1013.12 1013.43 1013.76 1014.06 1014.31 1014.45 1014.47 1014.36 1014.16 1013.87 1013.55 1013.24 1012.99 1012.82 1012.74 1012.77 1012.87 1013.04 1013.23 1013.44 1013.64 1013.83 1014.02 1014.21 1014.42 1014.66 1014.93 1015.21 1015.49 1015.73 1015.91 1015.99
1013.41 1013.36 1013.27 1013.13 1012.94 1012.73 1012.51 1012.32 1012.20 1012.16 1012.24 1012.41 1012.69 1013.04 1013.41 1013.76 1014.05 1014.24 1014.30 1014.24 1014.07 1013.83 1013.56 1013.30 1013.10 1012.98 1012.96 1013.04 1013.20 1013.42 1013.67 1013.93 1014.18 1014.42 1014.64 1014.85 1015.06 1015.28 1015.50 1015.73 1015.94 1016.11 1016.22 1016.23
1013.06 1012.95 1012.81 1012.64 1012.44 1012.22 1012.00 1011.81 1011.69 1011.66 1011.73 1011.92 1012.21 1012.57 1012.96 1013.34 1013.67 1013.90 1014.02 1014.02 1013.92 1013.75 1013.55 1013.36 1013.22 1013.15 1013.18 1013.31 1013.52 1013.78 1014.08 1014.39 1014.69 1014.98 1015.23 1015.47 1015.68 1015.89 1016.09 1016.27 1016.42 1016.52 1016.57 1016.53
1012.61 1012.44 1012.27 1012.08 1011.87 1011.66 1011.46 1011.29 1011.18 1011.17 1011.25 1011.45 1011.74 1012.11 1012.51 1012.91 1013.27 1013.54 1013.72 1013.79 1013.77 1013.67 1013.54 1013.42 1013.33 1013.32 1013.38 1013.54 1013.78 1014.07 1014.41 1014.76 1015.10 1015.42 1015.72 1015.98 1016.22 1016.42 1016.61 1016.76 1016.87 1016.92 1016.92 1016.85
1012.12 1011.89 1011.68 1011.48 1011.29 1011.10 1010.94 1010.80 1010.74 1010.74 1010.85 1011.06 1011.35 1011.72 1012.13 1012.55 1012.93 1013.25 1013.48 1013.61 1013.65 1013.62 1013.56 1013.48 1013.44 1013.45 1013.54 1013.70 1013.94 1014.24 1014.59 1014.96 1015.33 1015.69 1016.03 1016.32 1016.59 1016.81 1016.99 1017.13 1017.22 1017.25 1017.22 1017.12
1011.62 1011.35 1011.12 1010.92 1010.74 1010.60 1010.48 1010.40 1010.38 1010.42 1010.56 1010.78 1011.08 1011.46 1011.87 1012.30 1012.70 1013.04 1013.31 1013.50 1013.59 1013.62 1013.60 1013.55 1013.52 1013.54 1013.61 1013.76 1013.98 1014.27 1014.62 1014.99 1015.38 1015.77 1016.14 1016.47 1016.76 1017.01 1017.20 1017.34 1017.42 1017.45 1017.40 1017.30
1011.13 1010.84 1010.60 1010.42 1010.28 1010.18 1010.12 1010.10 1010.12 1010.22 1010.38 1010.62 1010.93 1011.30 1011.72 1012.15 1012.56 1012.93 1013.22 1013.44 1013.57 1013.63 1013.63 1013.60 1013.58 1013.57 1013.62 1013.73 1013.92 1014.18 1014.50 1014.87 1015.26 1015.67 1016.06 1016.43 1016.75 1017.02 1017.23 1017.38 1017.47 1017.50 1017.46 1017.37
1010.66 1010.36 1010.14 1009.98 1009.89 1009.84 1009.84 1009.88 1009.96 1010.09 1010.28 1010.54 1010.86 1011.23 1011.64 1012.06 1012.48 1012.85 1013.17 1013.40 1013.56 1013.64 1013.65 1013.62 1013.58 1013.56 1013.57 1013.64 1013.79 1014.01 1014.30 1014.66 1015.05 1015.46 1015.88 1016.27 1016.61 1016.91 1017.14 1017.30 1017.40 1017.43 1017.41 1017.34
1010.19 1009.91 1009.71 1009.60 1009.56 1009.57 1009.63 1009.72 1009.85 1010.02 1010.23 1010.49 1010.80 1011.17 1011.56 1011.98 1012.39 1012.76 1013.09 1013.34 1013.51 1013.60 1013.62 1013.60 1013.54 1013.50 1013.48 1013.52 1013.63 1013.82 1014.08 1014.42 1014.81 1015.23 1015.66 1016.06 1016.43 1016.74 1016.99 1017.16 1017.27 1017.32 1017.31 1017.27
1009.68 1009.44 1009.30 1009.24 1009.26 1009.32 1009.43 1009.57 1009.73 1009.92 1010.15 1010.41 1010.71 1011.06 1011.44 1011.84 1012.24 1012.61 1012.94 1013.20 1013.39 1013.50 1013.54 1013.52 1013.46 1013.41 1013.37 1013.39 1013.48 1013.64 1013.90 1014.22 1014.60 1015.03 1015.46 1015.88 1016.27 1016.60 1016.86 1017.05 1017.17 1017.23 1017.24 1017.22
1009.11 1008.93 1008.86 1008.86 1008.94 1009.06 1009.22 1009.39 1009.57 1009.78 1010.00 1010.25 1010.54 1010.86 1011.22 1011.60 1011.98 1012.35 1012.69 1012.97 1013.18 1013.31 1013.37 1013.38 1013.34 1013.29 1013.26 1013.28 1013.36 1013.52 1013.76 1014.08 1014.47 1014.90 1015.34 1015.78 1016.18 1016.52 1016.80 1017.00 1017.14 1017.22 1017.25 1017.25
1008.50 1008.40 1008.39 1008.46 1008.59 1008.76 1008.95 1009.15 1009.35 1009.55 1009.77 1010.00 1010.26 1010.56 1010.89 1011.25 1011.63 1012.00 1012.34 1012.64 1012.88 1013.04 1013.14 1013.18 1013.17 1013.15 1013.14 1013.17 1013.26 1013.42 1013.67 1013.99 1014.38 1014.82 1015.28 1015.73 1016.15 1016.51 1016.81 1017.04 1017.20 1017.30 1017.35 1017.38
1007.90 1007.86 1007.92 1008.04 1008.22 1008.43 1008.65 1008.86 1009.06 1009.26 1009.46 1009.66 1009.90 1010.18 1010.48 1010.83 1011.19 1011.56 1011.92 1012.24 1012.51 1012.72 1012.86 1012.94 1012.98 1012.99 1013.02 1013.06 1013.17 1013.34 1013.60 1013.93 1014.33 1014.78 1015.24 1015.71 1016.15 1016.54 1016.86 1017.12 1017.31 1017.44 1017.53 1017.59
1007.36 1007.38 1007.48 1007.66 1007.87 1008.10 1008.33 1008.54 1008.74 1008.92 1009.10 1009.28 1009.50 1009.75 1010.04 1010.36 1010.72 1011.10 1011.47 1011.81 1012.11 1012.36 1012.55 1012.68 1012.76 1012.82 1012.87 1012.95 1013.08 1013.26 1013.52 1013.86 1014.26 1014.71 1015.19 1015.67 1016.12 1016.54 1016.90 1017.19 1017.42 1017.60 1017.72 1017.81
1006.97 1007.02 1007.16 1007.35 1007.58 1007.81 1008.04 1008.24 1008.42 1008.58 1008.74 1008.91 1009.10 1009.33 1009.60 1009.92 1010.27 1010.64 1011.02 1011.40 1011.72 1012.01 1012.24 1012.41 1012.54 1012.64 1012.72 1012.83 1012.96 1013.16 1013.42 1013.75 1014.14 1014.59 1015.06 1015.55 1016.02 1016.46 1016.85 1017.19 1017.46 1017.68 1017.84 1017.98
1006.78 1006.84 1006.98 1007.17 1007.38 1007.60 1007.81 1007.99 1008.15 1008.29 1008.43 1008.57 1008.74 1008.95 1009.21 1009.51 1009.86 1010.24 1010.63 1011.01 1011.36 1011.68 1011.94 1012.16 1012.32 1012.46 1012.57 1012.69 1012.84 1013.04 1013.29 1013.61 1013.98 1014.41 1014.88 1015.36 1015.83 1016.29 1016.70 1017.07 1017.38 1017.64 1017.86 1018.04
1006.82 1006.86 1006.98 1007.13 1007.31 1007.50 1007.67 1007.82 1007.95 1008.06 1008.18 1008.30 1008.45 1008.64 1008.88 1009.17 1009.51 1009.88 1010.27 1010.66 1011.04 1011.38 1011.67 1011.92 1012.12 1012.28 1012.43 1012.56 1012.72 1012.92 1013.16 1013.45 1013.80 1014.20 1014.64 1015.10 1015.57 1016.02 1016.45 1016.84 1017.18 1017.48 1017.74 1017.96
1007.07 1007.07 1007.13 1007.24 1007.36 1007.50 1007.62 1007.73 1007.82 1007.91 1007.99 1008.10 1008.22 1008.39 1008.61 1008.88 1009.20 1009.56 1009.94 1010.34 1010.72 1011.08 1011.40 1011.68 1011.92 1012.11 1012.29 1012.45 1012.62 1012.82 1013.04 1013.32 1013.64 1014.00 1014.41 1014.84 1015.28 1015.72 1016.14 1016.54 1016.90 1017.24 1017.52 1017.78
1007.46 1007.40 1007.40 1007.44 1007.51 1007.58 1007.66 1007.72 1007.77 1007.82 1007.88 1007.95 1008.04 1008.18 1008.38 1008.62 1008.91 1009.25 1009.62 1010.00 1010.38 1010.76 1011.10 1011.42 1011.69 1011.94 1012.15 1012.35 1012.54 1012.75 1012.98 1013.24 1013.54 1013.87 1014.24 1014.62 1015.03 1015.44 1015.85 1016.24 1016.60 1016.94 1017.25 1017.53
1007.91 1007.79 1007.73 1007.70 1007.70 1007.72 1007.74 1007.76 1007.77 1007.78 1007.80 1007.84 1007.91 1008.01 1008.16 1008.37 1008.62 1008.92 1009.26 1009.63 1010.01 1010.39 1010.76 1011.11 1011.43 1011.72 1011.99 1012.24 1012.47 1012.71 1012.96 1013.22 1013.50 1013.81 1014.14 1014.50 1014.86 1015.24 1015.61 1015.98 1016.33 1016.67 1016.99 1017.28
1008.31 1008.15 1008.03 1007.95 1007.90 1007.87 1007.85 1007.83 1007.80 1007.79 1007.78 1007.78 1007.80 1007.86 1007.97 1008.12 1008.32 1008.58 1008.87 1009.21 1009.58 1009.96 1010.35 1010.73 1011.10 1011.45 1011.78 1012.10 1012.39 1012.68 1012.96 1013.24 1013.53 1013.82 1014.13 1014.45 1014.78 1015.12 1015.46 1015.79 1016.12 1016.45 1016.77 1017.07
1008.60 1008.41 1008.26 1008.15 1008.07 1008.01 1007.96 1007.92 1007.88 1007.83 1007.79 1007.76 1007.75 1007.76 1007.80 1007.89 1008.03 1008.22 1008.47 1008.76 1009.10 1009.48 1009.87 1010.28 1010.70 1011.11 1011.51 1011.89 1012.25 1012.60 1012.93 1013.24 1013.55 1013.85 1014.15 1014.44 1014.74 1015.04 1015.35 1015.66 1015.96 1016.27 1016.58 1016.89
Thickness
5700 5706 5705 5701 5701 5700 5691 5684 5672 5673 5673 5676 5678 5679 5679 5680 5679 5679 5677 5676 5675 5674 5673 5672 5671 5670 5669 5667 5665 5664 5661 5658 5656 5654 5652 5650 5648 5645 5642 5639 5637 5634 5632 5629
5696 5705 5705 5698 5700 5698 5693 5689 5681 5678 5673 5681 5682 5680 5678 5677 5676 5674 5673 5673 5673 5672 5670 5669 5668 5667 5665 5664 5663 5661 5658 5656 5655 5653 5650 5647 5645 5642 5639 5636 5633 5631 5628 5625
5679 5695 5696 5682 5691 5692 5687 5686 5681 5671 5673 5678 5675 5674 5673 5673 5673 5672 5670 5670 5669 5669 5668 5667 5666 5666 5663 5662 5660 5658 5656 5655 5653 5651 5648 5645 5643 5639 5636 5633 5630 5627 5623 5620
5674 5679 5668 5681 5700 5697 5686 5682 5682 5679 5677 5676 5674 5673 5673 5673 5671 5670 5670 5668 5668 5667 5667 5666 5665 5664 5662 5660 5657 5656 5654 5652 5651 5648 5645 5642 5639 5636 5633 5630 5627 5623 5620 5616
5667 5664 5670 5684 5693 5691 5682 5674 5680 5676 5675 5674 5674 5671 5669 5673 5672 5670 5670 5668 5667 5667 5666 5665 5663 5662 5660 5657 5655 5653 5651 5650 5649 5647 5643 5640 5637 5634 5631 5628 5624 5620 5617 5613
5667 5661 5657 5674 5693 5697 5683 5665 5678 5677 5673 5670 5668 5655 5659 5670 5670 5669 5669 5668 5667 5666 5665 5662 5661 5660 5656 5654 5652 5651 5650 5649 5648 5646 5643 5640 5636 5633 5630 5626 5622 5618 5614 5609
5662 5657 5663 5682 5692 5691 5663 5661 5677 5677 5674 5670 5664 5662 5665 5668 5668 5668 5667 5667 5666 5663 5661 5660 5659 5657 5653 5652 5651 5651 5650 5649 5647 5645 5642 5639 5635 5632 5628 5625 5620 5615 5611 5607
5657 5651 5655 5683 5684 5672 5668 5676 5678 5676 5674 5670 5668 5669 5668 5667 5665 5665 5664 5664 5663 5660 5658 5658 5657 5655 5651 5650 5651 5651 5649 5647 5645 5643 5641 5638 5634 5630 5627 5623 5618 5613 5608 5603
5659 5657 5671 5680 5679 5680 5678 5676 5676 5673 5672 5671 5667 5666 5665 5664 5663 5663 5662 5661 5660 5657 5655 5655 5655 5653 5650 5650 5650 5649 5647 5645 5642 5640 5638 5635 5632 5627 5624 5620 5616 5611 5605 5601
5660 5665 5671 5675 5677 5679 5678 5676 5676 5675 5672 5670 5666 5664 5663 5661 5660 5660 5659 5658 5657 5655 5652 5652 5652 5653 5651 5651 5650 5648 5645 5642 5639 5637 5634 5632 5629 5626 5622 5618 5614 5610 5604 5599
5656 5663 5666 5670 5672 5673 5674 5674 5673 5672 5671 5668 5665 5662 5660 5658 5657 5656 5656 5656 5654 5652 5650 5650 5651 5651 5651 5650 5648 5645 5642 5640 5637 5635 5632 5628 5626 5624 5621 5619 5615 5610 5604 5598
5650 5659 5658 5661 5670 5672 5669 5668 5669 5668 5667 5666 5664 5660 5658 5656 5655 5654 5653 5653 5651 5650 5649 5649 5649 5649 5650 5649 5647 5643 5640 5637 5635 5632 5629 5626 5624 5621 5621 5618 5615 5611 5606 5601
5661 5664 5663 5666 5668 5669 5667 5667 5667 5666 5664 5662 5661 5660 5657 5654 5653 5652 5651 5650 5648 5647 5647 5647 5647 5647 5648 5647 5645 5642 5639 5636 5634 5631 5628 5625 5623 5620 5617 5615 5613 5609 5605 5601
5664 5663 5659 5660 5661 5664 5664 5664 5664 5662 5661 5660 5659 5657 5654 5652 5651 5649 5649 5648 5648 5646 5645 5645 5644 5645 5646 5646 5644 5641 5639 5637 5634 5631 5628 5625 5622 5619 5616 5612 5609 5607 5605 5601
5659 5659 5656 5657 5658 5658 5659 5658 5656 5655 5655 5655 5655 5653 5651 5649 5647 5647 5648 5648 5646 5644 5643 5643 5643 5643 5645 5644 5642 5640 5637 5634 5632 5630 5627 5624 5621 5618 5615 5612 5609 5606 5603 5600
5652 5653 5652 5651 5650 5652 5652 5651 5649 5649 5650 5650 5650 5650 5649 5648 5646 5646 5646 5645 5643 5641 5642 5642 5642 5643 5643 5642 5640 5637 5635 5633 5631 5627 5624 5622 5619 5616 5614 5611 5608 5605 5602 5599
5642 5640 5641 5641 5643 5645 5645 5646 5645 5646 5646 5646 5647 5648 5647 5645 5643 5642 5642 5643 5642 5642 5642 5642 5642 5643 5642 5641 5638 5635 5633 5631 5629 5625 5622 5620 5617 5615 5613 5610 5608 5605 5602 5600
5640 5639 5639 5638 5638 5639 5640 5641 5641 5641 5642 5643 5645 5644 5642 5640 5638 5638 5640 5640 5640 5640 5641 5642 5642 5642 5641 5640 5637 5634 5632 5629 5626 5623 5621 5619 5617 5615 5612 5610 5608 5605 5601 5598
5633 5633 5634 5635 5635 5634 5633 5634 5635 5637 5638 5640 5640 5639 5639 5639 5638 5638 5637 5636 5636 5635 5638 5641 5642 5641 5640 5639 5636 5633 5631 5628 5625 5623 5620 5618 5616 5613 5611 5608 5606 5603 5600 5596
5626 5626 5627 5627 5628 5627 5628 5629 5631 5632 5634 5635 5635 5635 5634 5635 5636 5635 5634 5633 5634 5636 5638 5639 5639 5638 5638 5637 5635 5633 5630 5628 5625 5622 5619 5617 5614 5612 5609 5607 5605 5602 5598 5594
5615 5616 5617 5618 5619 5620 5622 5623 5624 5626 5628 5630 5629 5630 5630 5631 5633 5632 5630 5630 5634 5636 5636 5637 5636 5636 5636 5635 5634 5632 5630 5627 5624 5621 5619 5616 5613 5611 5608 5606 5604 5601 5597 5593
5605 5606 5608 5609 5610 5611 5614 5616 5618 5620 5622 5624 5626 5627 5627 5627 5628 5628 5629 5630 5633 5634 5634 5634 5635 5635 5634 5633 5632 5630 5629 5627 5624 5621 5619 5616 5613 5610 5607 5605 5602 5599 5596 5592
5594 5597 5599 5601 5602 5604 5607 5609 5612 5614 5616 5618 5620 5622 5622 5623 5625 5624 5625 5629 5631 5632 5632 5632 5633 5633 5632 5631 5630 5629 5627 5626 5623 5621 5619 5616 5613 5610 5607 5604 5601 5598 5594 5591
5585 5587 5590 5593 5595 5597 5598 5601 5605 5608 5611 5614 5617 5619 5620 5620 5622 5626 5628 5630 5630 5631 5631 5631 5631 5631 5629 5628 5628 5627 5626 5624 5623 5620 5618 5616 5613 5610 5607 5604 5601 5597 5594 5591
5578 5580 5582 5584 5586 5588 5591 5595 5599 5602 5606 5608 5612 5615 5618 5619 5620 5623 5625 5627 5628 5629 5629 5630 5630 5629 5627 5626 5625 5625 5624 5622 5621 5620 5617 5615 5612 5609 5606 5603 5600 5596 5593 5590
5569 5571 5575 5578 5580 5583 5586 5589 5592 5595 5598 5601 5606 5610 5614 5617 5619 5621 5622 5624 5626 5626 5627 5628 5628 5627 5625 5625 5624 5623 5622 5621 5619 5618 5616 5614 5611 5608 5606 5603 5600 5596 5593 5590
5563 5566 5569 5572 5575 5578 5581 5584 5586 5590 5593 5596 5600 5605 5609 5612 5615 5617 5618 5620 5621 5622 5624 5625 5625 5624 5623 5623 5622 5621 5621 5619 5618 5616 5614 5613 5610 5608 5605 5603 5600 5596 5593 5590